Radiation Dose at Monitoring Post of Fukushima Daini Nuclear Power Station
Date,Time,MP-1(microSv/h),MP-2(microSv/h),MP-3(microSv/h),MP-4(microSv/h),MP-5(microSv/h),MP-6(microSv/h),MP-7(microSv/h),Wind Direction,Wind Velocity(m/s),Rain
2015/08/30,00:00,0.475,0.274,0.489,0.450,0.443,0.217,0.187,east-northeast,3.6,No
2015/08/30,00:10,0.476,0.272,0.487,0.446,0.444,0.216,0.189,east-northeast,3.7,No
2015/08/30,00:20,0.479,0.272,0.491,0.452,0.446,0.219,0.187,east-northeast,3.2,No
2015/08/30,00:30,0.474,0.273,0.487,0.446,0.442,0.219,0.188,east-northeast,4.0,No
2015/08/30,00:40,0.479,0.271,0.490,0.450,0.448,0.217,0.188,east-northeast,4.3,No
2015/08/30,00:50,0.477,0.275,0.490,0.448,0.443,0.218,0.188,northeast,3.6,No
2015/08/30,01:00,0.475,0.271,0.485,0.446,0.443,0.218,0.188,northeast,3.7,No
2015/08/30,01:10,0.480,0.273,0.492,0.452,0.446,0.217,0.187,northeast,3.3,No
2015/08/30,01:20,0.475,0.273,0.486,0.448,0.439,0.217,0.189,northeast,3.7,No
2015/08/30,01:30,0.477,0.272,0.490,0.448,0.446,0.219,0.188,northeast,3.9,No
2015/08/30,01:40,0.479,0.273,0.491,0.450,0.445,0.217,0.188,northeast,4.0,No
2015/08/30,01:50,0.473,0.271,0.485,0.445,0.442,0.217,0.188,northeast,3.3,Yes
2015/08/30,02:00,0.480,0.274,0.492,0.451,0.447,0.219,0.188,northeast,3.6,Yes
2015/08/30,02:10,0.475,0.273,0.488,0.448,0.440,0.217,0.188,northeast,3.5,Yes
2015/08/30,02:20,0.478,0.273,0.487,0.449,0.449,0.219,0.188,north-northeast,2.1,Yes
2015/08/30,02:30,0.479,0.274,0.490,0.451,0.442,0.218,0.188,north-northeast,2.4,Yes
2015/08/30,02:40,0.475,0.273,0.486,0.445,0.443,0.219,0.188,north-northeast,2.5,Yes
2015/08/30,02:50,0.479,0.274,0.491,0.452,0.444,0.219,0.189,north-northeast,2.5,Yes
2015/08/30,03:00,0.475,0.271,0.487,0.447,0.439,0.218,0.188,north,3.8,Yes
2015/08/30,03:10,0.476,0.273,0.488,0.448,0.446,0.220,0.189,north-northwest,4.4,Yes
2015/08/30,03:20,0.478,0.273,0.490,0.450,0.440,0.218,0.189,north-northwest,4.7,Yes
2015/08/30,03:30,0.474,0.272,0.485,0.445,0.445,0.219,0.189,north-northwest,5.1,Yes
2015/08/30,03:40,0.479,0.274,0.492,0.452,0.444,0.220,0.189,north-northwest,5.3,Yes
2015/08/30,03:50,0.475,0.274,0.488,0.446,0.445,0.218,0.187,north-northwest,5.4,Yes
2015/08/30,04:00,0.479,0.276,0.489,0.449,0.444,0.219,0.189,north-northwest,5.3,Yes
2015/08/30,04:10,0.478,0.274,0.489,0.449,0.443,0.219,0.188,north-northwest,6.0,Yes
2015/08/30,04:20,0.477,0.276,0.486,0.446,0.447,0.219,0.190,north-northwest,6.1,Yes
2015/08/30,04:30,0.480,0.275,0.492,0.451,0.442,0.218,0.187,north-northwest,5.8,Yes
2015/08/30,04:40,0.472,0.274,0.486,0.446,0.448,0.219,0.189,north-northwest,5.9,Yes
2015/08/30,04:50,0.479,0.274,0.491,0.450,0.444,0.219,0.189,north-northwest,6.0,Yes
2015/08/30,05:00,0.474,0.273,0.487,0.447,0.444,0.217,0.187,north-northwest,6.2,Yes
2015/08/30,05:10,0.478,0.275,0.486,0.446,0.445,0.219,0.188,north-northwest,6.4,Yes
2015/08/30,05:20,0.475,0.272,0.491,0.448,0.442,0.217,0.187,north-northwest,5.9,Yes
2015/08/30,05:30,0.475,0.274,0.485,0.444,0.446,0.219,0.189,north-northwest,5.9,Yes
2015/08/30,05:40,0.478,0.272,0.489,0.448,0.439,0.217,0.188,north-northwest,5.9,Yes
2015/08/30,05:50,0.473,0.273,0.486,0.445,0.446,0.218,0.188,north-northwest,6.2,Yes
2015/08/30,06:00,0.478,0.274,0.488,0.449,0.442,0.219,0.187,north-northwest,6.0,Yes
2015/08/30,06:10,0.474,0.272,0.488,0.445,0.444,0.218,0.188,north-northwest,6.3,Yes
2015/08/30,06:20,0.476,0.275,0.484,0.445,0.442,0.218,0.187,north-northwest,5.9,Yes
2015/08/30,06:30,0.475,0.272,0.488,0.446,0.441,0.218,0.189,north-northwest,5.9,Yes
2015/08/30,06:40,0.472,0.274,0.482,0.442,0.445,0.220,0.188,north-northwest,5.9,Yes
2015/08/30,06:50,0.475,0.272,0.488,0.446,0.440,0.218,0.189,north-northwest,6.5,Yes
2015/08/30,07:00,0.470,0.274,0.485,0.442,0.446,0.219,0.188,north-northwest,7.1,Yes
2015/08/30,07:10,0.476,0.273,0.484,0.446,0.441,0.218,0.188,north-northwest,6.6,Yes
2015/08/30,07:20,0.472,0.273,0.486,0.445,0.446,0.218,0.187,north-northwest,6.4,Yes
2015/08/30,07:30,0.476,0.274,0.484,0.445,0.442,0.218,0.188,north-northwest,5.6,Yes
2015/08/30,07:40,0.474,0.274,0.490,0.448,0.443,0.218,0.189,north-northwest,4.7,No
2015/08/30,07:50,0.473,0.275,0.485,0.444,0.445,0.218,0.188,north-northwest,5.3,No
2015/08/30,08:00,0.478,0.271,0.486,0.448,0.440,0.218,0.189,north-northwest,4.9,No
2015/08/30,08:10,0.470,0.273,0.486,0.445,0.447,0.217,0.188,north-northwest,5.3,No
2015/08/30,08:20,0.479,0.272,0.484,0.445,0.441,0.217,0.187,north-northwest,5.0,No
2015/08/30,08:30,0.474,0.273,0.489,0.449,0.446,0.216,0.188,north-northwest,6.1,No
2015/08/30,08:40,0.473,0.274,0.484,0.443,0.444,0.218,0.186,north-northwest,5.6,No
2015/08/30,08:50,0.476,0.270,0.488,0.448,0.443,0.216,0.188,north-northwest,5.5,Yes
2015/08/30,09:00,0.474,0.273,0.488,0.445,0.445,0.217,0.186,north-northwest,5.6,No
2015/08/30,09:10,0.477,0.272,0.485,0.445,0.440,0.218,0.189,north-northwest,5.7,Yes
2015/08/30,09:20,0.474,0.272,0.490,0.448,0.447,0.217,0.187,north-northwest,5.3,Yes
2015/08/30,09:30,0.472,0.274,0.486,0.442,0.443,0.218,0.187,north-northwest,5.4,Yes
2015/08/30,09:40,0.477,0.271,0.489,0.449,0.441,0.217,0.189,north-northwest,5.2,Yes
2015/08/30,09:50,0.473,0.274,0.490,0.447,0.446,0.218,0.186,north-northwest,6.1,No
2015/08/30,10:00,0.477,0.272,0.483,0.443,0.440,0.217,0.189,north-northwest,5.5,No
2015/08/30,10:10,0.476,0.273,0.492,0.448,0.446,0.217,0.188,north-northwest,5.5,No
2015/08/30,10:20,0.473,0.275,0.487,0.446,0.443,0.219,0.187,north-northwest,5.3,No
2015/08/30,10:30,0.476,0.271,0.485,0.445,0.440,0.217,0.188,north-northwest,5.1,No
2015/08/30,10:40,0.474,0.271,0.489,0.447,0.445,0.217,0.187,north-northwest,4.0,Yes
2015/08/30,10:50,0.474,0.273,0.485,0.444,0.443,0.217,0.187,north-northwest,4.4,Yes
2015/08/30,11:00,0.477,0.272,0.489,0.448,0.441,0.217,0.188,north-northwest,3.7,Yes
2015/08/30,11:10,0.471,0.273,0.489,0.449,0.447,0.218,0.187,north-northwest,3.4,Yes
2015/08/30,11:20,0.476,0.273,0.485,0.444,0.440,0.218,0.188,northwest,2.8,Yes
2015/08/30,11:30,0.474,0.271,0.490,0.448,0.443,0.217,0.189,north-northwest,4.8,Yes
2015/08/30,11:40,0.471,0.274,0.487,0.447,0.444,0.218,0.187,north,4.1,Yes
2015/08/30,11:50,0.477,0.273,0.485,0.444,0.440,0.219,0.189,north,4.4,Yes
2015/08/30,12:00,0.472,0.272,0.491,0.451,0.446,0.218,0.188,north-northwest,3.5,Yes
2015/08/30,12:10,0.473,0.273,0.487,0.445,0.443,0.219,0.189,north-northwest,4.2,Yes
2015/08/30,12:20,0.476,0.273,0.487,0.445,0.442,0.219,0.189,north-northwest,4.6,Yes
2015/08/30,12:30,0.471,0.277,0.488,0.449,0.446,0.220,0.190,north-northwest,4.3,Yes
2015/08/30,12:40,0.479,0.274,0.486,0.444,0.442,0.220,0.191,north,4.4,Yes
2015/08/30,12:50,0.476,0.275,0.488,0.450,0.445,0.222,0.189,north,4.7,Yes
2015/08/30,13:00,0.474,0.276,0.486,0.446,0.444,0.221,0.190,north,3.6,Yes
2015/08/30,13:10,0.478,0.273,0.486,0.443,0.443,0.220,0.189,north-northeast,4.0,No
2015/08/30,13:20,0.471,0.275,0.490,0.448,0.448,0.221,0.188,north-northeast,3.9,No
2015/08/30,13:30,0.475,0.275,0.485,0.445,0.442,0.218,0.189,north-northeast,4.4,No
2015/08/30,13:40,0.477,0.272,0.489,0.445,0.443,0.218,0.189,north,3.1,No
2015/08/30,13:50,0.469,0.274,0.489,0.449,0.445,0.217,0.188,north,3.4,Yes
2015/08/30,14:00,0.476,0.272,0.485,0.444,0.440,0.218,0.188,north,4.1,Yes
2015/08/30,14:10,0.474,0.274,0.490,0.447,0.445,0.218,0.187,north-northeast,4.5,Yes
2015/08/30,14:20,0.471,0.273,0.487,0.447,0.443,0.218,0.188,north,4.3,Yes
2015/08/30,14:30,0.477,0.273,0.484,0.443,0.441,0.218,0.188,north-northeast,5.2,Yes
2015/08/30,14:40,0.472,0.275,0.491,0.450,0.447,0.219,0.188,north,5.0,Yes
2015/08/30,14:50,0.474,0.274,0.485,0.445,0.443,0.219,0.189,north-northeast,3.9,Yes
2015/08/30,15:00,0.476,0.276,0.486,0.445,0.446,0.220,0.189,north-northeast,4.0,Yes
2015/08/30,15:10,0.471,0.275,0.491,0.450,0.446,0.219,0.189,north-northeast,4.3,Yes
2015/08/30,15:20,0.479,0.274,0.484,0.444,0.442,0.219,0.191,north,4.6,Yes
2015/08/30,15:30,0.475,0.276,0.489,0.448,0.447,0.222,0.190,north-northeast,5.0,Yes
2015/08/30,15:40,0.474,0.276,0.488,0.446,0.445,0.221,0.193,north-northeast,4.9,Yes
2015/08/30,15:50,0.478,0.277,0.484,0.443,0.445,0.223,0.192,north-northeast,6.4,Yes
2015/08/30,16:00,0.472,0.278,0.487,0.446,0.447,0.222,0.191,north,5.8,Yes
2015/08/30,16:10,0.478,0.277,0.482,0.441,0.441,0.222,0.191,north,3.8,Yes
2015/08/30,16:20,0.472,0.279,0.486,0.444,0.449,0.222,0.190,north-northeast,5.8,Yes
2015/08/30,16:30,0.473,0.275,0.487,0.447,0.444,0.221,0.191,north-northeast,5.2,Yes
2015/08/30,16:40,0.477,0.276,0.482,0.442,0.444,0.223,0.188,north,4.7,Yes
2015/08/30,16:50,0.470,0.277,0.490,0.446,0.446,0.220,0.190,north,4.8,Yes
2015/08/30,17:00,0.477,0.275,0.486,0.446,0.442,0.220,0.191,north,4.0,Yes
2015/08/30,17:10,0.474,0.277,0.485,0.443,0.448,0.220,0.189,north,3.7,Yes
2015/08/30,17:20,0.472,0.273,0.490,0.448,0.446,0.219,0.191,north,3.2,Yes
2015/08/30,17:30,0.477,0.274,0.483,0.443,0.445,0.220,0.189,northeast,4.8,Yes
2015/08/30,17:40,0.471,0.275,0.487,0.446,0.447,0.218,0.188,northeast,4.5,Yes
2015/08/30,17:50,0.474,0.272,0.487,0.448,0.440,0.219,0.189,northeast,3.6,Yes
2015/08/30,18:00,0.475,0.273,0.485,0.442,0.447,0.218,0.189,northeast,5.1,Yes
2015/08/30,18:10,0.471,0.273,0.490,0.449,0.445,0.218,0.190,northeast,4.4,Yes
2015/08/30,18:20,0.476,0.274,0.485,0.445,0.443,0.218,0.187,northeast,4.5,Yes
2015/08/30,18:30,0.471,0.274,0.486,0.446,0.445,0.218,0.188,northeast,5.2,Yes
2015/08/30,18:40,0.471,0.273,0.488,0.447,0.441,0.218,0.188,northeast,4.1,Yes
2015/08/30,18:50,0.477,0.274,0.482,0.442,0.445,0.218,0.188,northeast,4.7,Yes
2015/08/30,19:00,0.473,0.272,0.489,0.448,0.443,0.217,0.188,north-northeast,5.3,Yes
2015/08/30,19:10,0.475,0.272,0.485,0.446,0.443,0.218,0.188,north-northeast,4.5,Yes
2015/08/30,19:20,0.474,0.273,0.486,0.443,0.446,0.217,0.188,northeast,3.9,Yes
2015/08/30,19:30,0.470,0.271,0.488,0.446,0.440,0.216,0.186,north-northeast,5.0,Yes
2015/08/30,19:40,0.476,0.274,0.482,0.442,0.445,0.218,0.186,north-northeast,5.5,Yes
2015/08/30,19:50,0.472,0.273,0.489,0.447,0.443,0.216,0.186,north-northeast,5.0,Yes
2015/08/30,20:00,0.474,0.273,0.487,0.447,0.441,0.217,0.187,northeast,4.3,Yes
2015/08/30,20:10,0.476,0.272,0.484,0.443,0.446,0.217,0.188,northeast,5.0,Yes
2015/08/30,20:20,0.469,0.272,0.489,0.446,0.441,0.218,0.188,north-northeast,4.3,Yes
2015/08/30,20:30,0.474,0.274,0.482,0.444,0.445,0.218,0.189,northeast,4.8,Yes
2015/08/30,20:40,0.472,0.273,0.486,0.444,0.443,0.217,0.189,north-northeast,3.6,Yes
2015/08/30,20:50,0.472,0.274,0.487,0.444,0.441,0.219,0.187,northeast,4.7,Yes
2015/08/30,21:00,0.474,0.273,0.480,0.441,0.447,0.217,0.188,north-northeast,5.3,Yes
2015/08/30,21:10,0.467,0.272,0.488,0.448,0.441,0.218,0.186,north-northeast,4.7,Yes
2015/08/30,21:20,0.477,0.273,0.484,0.443,0.445,0.218,0.189,north-northeast,3.7,Yes
2015/08/30,21:30,0.473,0.270,0.485,0.445,0.444,0.217,0.187,north-northeast,4.4,Yes
2015/08/30,21:40,0.467,0.274,0.489,0.445,0.442,0.218,0.188,north-northeast,6.3,Yes
2015/08/30,21:50,0.475,0.274,0.481,0.438,0.446,0.217,0.187,northeast,4.8,Yes
2015/08/30,22:00,0.469,0.272,0.487,0.444,0.441,0.217,0.188,north-northeast,5.2,Yes
2015/08/30,22:10,0.473,0.274,0.483,0.444,0.444,0.216,0.188,northeast,5.8,Yes
2015/08/30,22:20,0.474,0.273,0.483,0.442,0.443,0.217,0.187,northeast,5.0,Yes
2015/08/30,22:30,0.470,0.275,0.488,0.445,0.441,0.219,0.187,northeast,5.6,Yes
2015/08/30,22:40,0.476,0.273,0.482,0.442,0.446,0.217,0.187,north-northeast,5.9,Yes
2015/08/30,22:50,0.472,0.273,0.485,0.444,0.440,0.218,0.189,north-northeast,4.7,Yes
2015/08/30,23:00,0.472,0.274,0.486,0.445,0.445,0.218,0.188,north-northeast,5.6,Yes
2015/08/30,23:10,0.476,0.271,0.481,0.440,0.442,0.216,0.187,northeast,5.7,Yes
2015/08/30,23:20,0.469,0.272,0.488,0.446,0.443,0.217,0.187,north-northeast,5.7,Yes
2015/08/30,23:30,0.474,0.271,0.482,0.443,0.443,0.216,0.185,northeast,5.3,Yes
2015/08/30,23:40,0.473,0.271,0.484,0.442,0.439,0.218,0.187,northeast,5.0,No
2015/08/30,23:50,0.470,0.271,0.486,0.444,0.446,0.216,0.186,northeast,3.3,No
